User: anonymous
Location: Unspecified
(0.0000°N, 0.0000°E)
Time: 15:19:08
(UTC+00:00)
Language:

NAVSTAR 64 (USA 206) - Orbit

View from above orbital plane
View from above orbital plane
View from above satellite
View from above satellite

Ground track
Ground track

The orbit data is extracted from the following two-line orbital elements,

1 35752U 09043A   14234.22639683 -.00000004  00000-0  00000+0 0  8725
2 35752 054.2651 201.2729 0036956 014.7577 218.4931 02.00563959 36769
Epoch (UTC): 22 August 2014 05:26:00
Eccentricity: 0.0036956
inclination: 54.2651°
perigee height: 20084 km
apogee height: 20280 km
right ascension of ascending node: 201.2729°
argument of perigee: 14.7577°
revolutions per day: 2.00563959
mean anomaly at epoch: 218.4931°
orbit number at epoch: 3676

The dashed part of the orbit path shows where the satellite is in the earth's shadow,  

DLR